| time (UTC) | temp F | wind direction | speed MPH | gust MPH | rain 1hr in | rain 24hr in | rain mn in | humidity % | barometer mb |
| 20260905201519 | 80 | 327 | 3.0 | 12.0 | 0.00 | 0.00 | 0.00 | 67 | 1014.8 |
| 20260905201018 | 80 | 325 | 3.0 | 13.0 | 0.00 | 0.00 | 0.00 | 67 | 1014.6 |
| 20260905200518 | 80 | 335 | 2.0 | 7.0 | 0.00 | 0.00 | 0.00 | 67 | 1014.6 |
| 20260905200019 | 80 | 337 | 1.0 | 9.0 | 0.00 | 0.00 | 0.00 | 66 | 1014.7 |
| 20260905195519 | 80 | 343 | 2.0 | 7.0 | 0.00 | 0.00 | 0.00 | 66 | 1014.7 |
| 20260905195019 | 79 | 347 | 2.0 | 8.0 | 0.00 | 0.00 | 0.00 | 66 | 1014.9 |
| 20260905194519 | 79 | 360 | 2.0 | 5.0 | 0.00 | 0.00 | 0.00 | 66 | 1014.8 |
| 20260905194019 | 78 | 42 | 2.0 | 11.0 | 0.00 | 0.00 | 0.00 | 67 | 1014.8 |
| 20260905193518 | 78 | 80 | 2.0 | 5.0 | 0.00 | 0.00 | 0.00 | 67 | 1014.8 |
| 20260905193018 | 78 | 72 | 2.0 | 9.0 | 0.00 | 0.00 | 0.00 | 66 | 1014.8 |
| 20260905192519 | 78 | 59 | 2.0 | 9.0 | 0.00 | 0.00 | 0.00 | 66 | 1014.9 |
| 20260905192019 | 78 | 360 | 1.0 | 4.0 | 0.00 | 0.00 | 0.00 | 67 | 1014.9 |
| 20260905191518 | 77 | 360 | 2.0 | 4.0 | 0.00 | 0.00 | 0.00 | 66 | 1015.0 |
| 20260905191019 | 77 | 360 | 1.0 | 8.0 | 0.00 | 0.00 | 0.00 | 66 | 1014.9 |
| 20260905190540 | 78 | 360 | 1.0 | 4.0 | 0.00 | 0.00 | 0.00 | 66 | 1015.0 |
| 20260905190019 | 78 | 360 | 2.0 | 7.0 | 0.00 | 0.00 | 0.00 | 66 | 1015.1 |
| 20260905185519 | 78 | 360 | 1.0 | 5.0 | 0.00 | 0.00 | 0.00 | 66 | 1015.0 |
| 20260905185018 | 78 | 360 | 1.0 | 4.0 | 0.00 | 0.00 | 0.00 | 66 | 1015.1 |
| 20260905184519 | 77 | 360 | 2.0 | 5.0 | 0.00 | 0.00 | 0.00 | 66 | 1015.1 |
| 20260905184040 | 77 | 360 | 2.0 | 12.0 | 0.00 | 0.00 | 0.00 | 66 | 1015.1 |
| 20260905183518 | 77 | 2 | 2.0 | 7.0 | 0.00 | 0.00 | 0.00 | 66 | 1015.1 |
| 20260905183040 | 78 | 2 | 2.0 | 5.0 | 0.00 | 0.00 | 0.00 | 64 | 1015.3 |
| 20260905182518 | 78 | 35 | 3.0 | 7.0 | 0.00 | 0.00 | 0.00 | 64 | 1015.3 |
| 20260905182019 | 78 | 64 | 3.0 | 5.0 | 0.00 | 0.00 | 0.00 | 66 | 1015.3 |
| 20260905181518 | 78 | 60 | 3.0 | 11.0 | 0.00 | 0.00 | 0.00 | 63 | 1015.3 |
| 20260905181040 | 79 | 59 | 3.0 | 8.0 | 0.00 | 0.00 | 0.00 | 63 | 1015.3 |
| 20260905180519 | 79 | 63 | 2.0 | 9.0 | 0.00 | 0.00 | 0.00 | 63 | 1015.3 |
| 20260905180019 | 80 | 51 | 2.0 | 7.0 | 0.00 | 0.00 | 0.00 | 40 | 1015.3 |
| 20260905175519 | 80 | 55 | 1.0 | 5.0 | 0.00 | 0.00 | 0.00 | 42 | 1015.3 |
| 20260905175019 | 79 | 332 | 2.0 | 9.0 | 0.00 | 0.00 | 0.00 | 63 | 1015.3 |
| 20260905174519 | 79 | 325 | 3.0 | 7.0 | 0.00 | 0.00 | 0.00 | 62 | 1015.3 |
| 20260905174019 | 79 | 110 | 2.0 | 8.0 | 0.00 | 0.00 | 0.00 | 63 | 1015.3 |
| 20260905173540 | 79 | 79 | 2.0 | 11.0 | 0.00 | 0.00 | 0.00 | 62 | 1015.3 |
| 20260905173039 | 79 | 32 | 1.0 | 11.0 | 0.00 | 0.00 | 0.00 | 63 | 1015.3 |
| 20260905172519 | 78 | 6 | 1.0 | 5.0 | 0.00 | 0.00 | 0.00 | 63 | 1015.3 |
| 20260905172018 | 78 | 348 | 1.0 | 5.0 | 0.00 | 0.00 | 0.00 | 41 | 1015.3 |
| 20260905171518 | 78 | 360 | 2.0 | 9.0 | 0.00 | 0.00 | 0.00 | 62 | 1015.5 |
| 20260905171040 | 77 | 60 | 2.0 | 5.0 | 0.00 | 0.00 | 0.00 | 61 | 1015.4 |
| 20260905170519 | 77 | 81 | 3.0 | 9.0 | 0.00 | 0.00 | 0.00 | 62 | 1015.4 |
| 20260905170019 | 77 | 79 | 3.0 | 11.0 | 0.00 | 0.00 | 0.00 | 66 | 1015.4 |
| 20260905165519 | 77 | 69 | 3.0 | 11.0 | 0.00 | 0.00 | 0.00 | 63 | 1015.5 |
| 20260905165040 | 76 | 67 | 3.0 | 11.0 | 0.00 | 0.00 | 0.00 | 62 | 1015.4 |
| 20260905164518 | 76 | 74 | 3.0 | 11.0 | 0.00 | 0.00 | 0.00 | 63 | 1015.3 |
| 20260905164019 | 76 | 43 | 3.0 | 12.0 | 0.00 | 0.00 | 0.00 | 38 | 1015.4 |
| 20260905163519 | 76 | 359 | 2.0 | 7.0 | 0.00 | 0.00 | 0.00 | 60 | 1015.4 |
| 20260905163018 | 76 | 356 | 1.0 | 3.0 | 0.00 | 0.00 | 0.00 | 61 | 1015.5 |
| 20260905162519 | 76 | 30 | 3.0 | 7.0 | 0.00 | 0.00 | 0.00 | 60 | 1015.4 |
| 20260905162040 | 75 | 53 | 4.0 | 9.0 | 0.00 | 0.00 | 0.00 | 62 | 1015.4 |
| 20260905161519 | 75 | 53 | 3.0 | 9.0 | 0.00 | 0.00 | 0.00 | 60 | 1015.5 |
| 20260905161018 | 75 | 59 | 5.0 | 12.0 | 0.00 | 0.00 | 0.00 | 60 | 1015.5 |
| 20260905160518 | 75 | 65 | 5.0 | 11.0 | 0.00 | 0.00 | 0.00 | 58 | 1015.5 |
| 20260905160019 | 75 | 16 | 4.0 | 8.0 | 0.00 | 0.00 | 0.00 | 59 | 1015.5 |
| 20260905155518 | 75 | 17 | 5.0 | 8.0 | 0.00 | 0.00 | 0.00 | 59 | 1015.5 |
| 20260905155019 | 74 | 24 | 5.0 | 11.0 | 0.00 | 0.00 | 0.00 | 58 | 1015.5 |
| 20260905154518 | 74 | 17 | 6.0 | 9.0 | 0.00 | 0.00 | 0.00 | 59 | 1015.5 |
| 20260905154040 | 74 | 14 | 6.0 | 12.0 | 0.00 | 0.00 | 0.00 | 58 | 1015.6 |
| 20260905153519 | 74 | 14 | 5.0 | 12.0 | 0.00 | 0.00 | 0.00 | 57 | 1015.5 |
| 20260905153018 | 74 | 20 | 4.0 | 12.0 | 0.00 | 0.00 | 0.00 | 55 | 1015.6 |
| 20260905152518 | 74 | 16 | 3.0 | 11.0 | 0.00 | 0.00 | 0.00 | 56 | 1015.5 |
| 20260905152019 | 73 | 3 | 5.0 | 8.0 | 0.00 | 0.00 | 0.00 | 55 | 1015.4 |
| 20260905151519 | 73 | 3 | 6.0 | 15.0 | 0.00 | 0.00 | 0.00 | 55 | 1015.5 |
| 20260905151019 | 73 | 1 | 6.0 | 15.0 | 0.00 | 0.00 | 0.00 | 53 | 1015.4 |
| 20260905150539 | 73 | 2 | 6.0 | 15.0 | 0.00 | 0.00 | 0.00 | 55 | 1015.5 |
| 20260905150019 | 73 | 1 | 6.0 | 12.0 | 0.00 | 0.00 | 0.00 | 33 | 1015.4 |
| 20260905145518 | 73 | 360 | 5.0 | 13.0 | 0.00 | 0.00 | 0.00 | 56 | 1015.4 |
| 20260905145019 | 73 | 360 | 4.0 | 11.0 | 0.00 | 0.00 | 0.00 | 57 | 1015.4 |
| 20260905144518 | 73 | 360 | 4.0 | 11.0 | 0.00 | 0.00 | 0.00 | 59 | 1015.4 |
| 20260905144019 | 72 | 360 | 5.0 | 16.0 | 0.00 | 0.00 | 0.00 | 57 | 1015.3 |
| 20260905143519 | 72 | 360 | 5.0 | 12.0 | 0.00 | 0.00 | 0.00 | 60 | 1015.2 |
| 20260905143039 | 71 | 360 | 5.0 | 8.0 | 0.00 | 0.00 | 0.00 | 60 | 1015.2 |
| 20260905142518 | 71 | 360 | 5.0 | 13.0 | 0.00 | 0.00 | 0.00 | 37 | 1015.2 |
| 20260905142018 | 71 | 360 | 4.0 | 11.0 | 0.00 | 0.00 | 0.00 | 61 | 1015.2 |
| 20260905141518 | 70 | 360 | 5.0 | 8.0 | 0.00 | 0.00 | 0.00 | 63 | 1015.2 |
| 20260905141018 | 70 | 360 | 5.0 | 12.0 | 0.00 | 0.00 | 0.00 | 61 | 1015.2 |
| 20260905140518 | 69 | 360 | 5.0 | 11.0 | 0.00 | 0.00 | 0.00 | 63 | 1015.2 |
| 20260905140039 | 69 | 360 | 6.0 | 11.0 | 0.00 | 0.00 | 0.00 | 63 | 1015.2 |
| 20260905135518 | 69 | 360 | 5.0 | 8.0 | 0.00 | 0.00 | 0.00 | 64 | 1015.3 |
| 20260905135019 | 69 | 360 | 6.0 | 12.0 | 0.00 | 0.00 | 0.00 | 64 | 1015.2 |
| 20260905134519 | 69 | 360 | 6.0 | 13.0 | 0.00 | 0.00 | 0.00 | 62 | 1015.2 |
| 20260905134018 | 69 | 360 | 5.0 | 12.0 | 0.00 | 0.00 | 0.00 | 62 | 1015.2 |
| 20260905133539 | 69 | 360 | 5.0 | 12.0 | 0.00 | 0.00 | 0.00 | 63 | 1015.2 |
| 20260905133018 | 69 | 360 | 5.0 | 12.0 | 0.00 | 0.00 | 0.00 | 64 | 1015.2 |
| 20260905132518 | 68 | 360 | 5.0 | 11.0 | 0.00 | 0.00 | 0.00 | 64 | 1015.2 |
| 20260905132018 | 68 | 360 | 5.0 | 11.0 | 0.00 | 0.00 | 0.00 | 64 | 1015.2 |
| 20260905131540 | 68 | 360 | 5.0 | 12.0 | 0.00 | 0.00 | 0.00 | 66 | 1015.3 |
| 20260905131039 | 68 | 360 | 5.0 | 8.0 | 0.00 | 0.00 | 0.00 | 67 | 1015.2 |
| 20260905130518 | 67 | 360 | 5.0 | 11.0 | 0.00 | 0.00 | 0.00 | 68 | 1015.2 |
| 20260905130018 | 67 | 360 | 5.0 | 8.0 | 0.00 | 0.00 | 0.00 | 69 | 1015.2 |
| 20260905125518 | 66 | 360 | 5.0 | 11.0 | 0.00 | 0.00 | 0.00 | 70 | 1015.3 |
| 20260905125018 | 66 | 360 | 5.0 | 11.0 | 0.00 | 0.00 | 0.00 | 70 | 1015.3 |
| 20260905124519 | 66 | 360 | 4.0 | 8.0 | 0.00 | 0.00 | 0.00 | 71 | 1015.2 |
| 20260905124018 | 65 | 360 | 5.0 | 8.0 | 0.00 | 0.00 | 0.00 | 72 | 1015.2 |
| 20260905123539 | 65 | 360 | 5.0 | 12.0 | 0.00 | 0.00 | 0.00 | 72 | 1015.3 |
| 20260905123018 | 65 | 360 | 5.0 | 11.0 | 0.00 | 0.00 | 0.00 | 73 | 1015.2 |
| 20260905122518 | 64 | 360 | 4.0 | 11.0 | 0.00 | 0.00 | 0.00 | 74 | 1015.1 |
| 20260905122018 | 64 | 360 | 3.0 | 8.0 | 0.00 | 0.00 | 0.00 | 75 | 1015.1 |
| 20260905121540 | 64 | 12 | 3.0 | 8.0 | 0.00 | 0.00 | 0.00 | 75 | 1015.2 |
| 20260905121018 | 64 | 74 | 2.0 | 5.0 | 0.00 | 0.00 | 0.00 | 77 | 1015.2 |
| 20260905120518 | 63 | 59 | 2.0 | 4.0 | 0.00 | 0.00 | 0.00 | 77 | 1015.2 |
| 20260905120019 | 63 | 6 | 2.0 | 5.0 | 0.00 | 0.00 | 0.00 | 78 | 1015.2 |
| 20260905115518 | 63 | 1 | 1.0 | 4.0 | 0.00 | 0.00 | 0.00 | 78 | 1015.3 |
| 20260905115040 | 62 | 2 | 1.0 | 4.0 | 0.00 | 0.00 | 0.00 | 78 | 1015.2 |
| 20260905114518 | 62 | 360 | 0.0 | 3.0 | 0.00 | 0.00 | 0.00 | 78 | 1015.3 |
| 20260905114018 | 62 | 0 | 0.0 | 0.0 | 0.00 | 0.00 | 0.00 | 78 | 1015.2 |
| 20260905113518 | 62 | 0 | 0.0 | 0.0 | 0.00 | 0.00 | 0.00 | 78 | 1015.4 |
| 20260905113018 | 61 | 0 | 0.0 | 0.0 | 0.00 | 0.00 | 0.00 | 78 | 1015.4 |
| 20260905112518 | 61 | 0 | 0.0 | 0.0 | 0.00 | 0.00 | 0.00 | 77 | 1015.3 |
| 20260905112018 | 61 | 0 | 0.0 | 0.0 | 0.00 | 0.00 | 0.00 | 77 | 1015.2 |
| 20260905111539 | 61 | 0 | 0.0 | 0.0 | 0.00 | 0.00 | 0.00 | 77 | 1015.2 |
| 20260905111018 | 61 | 0 | 0.0 | 0.0 | 0.00 | 0.00 | 0.00 | 77 | 1015.2 |
| 20260905110518 | 61 | 0 | 0.0 | 0.0 | 0.00 | 0.00 | 0.00 | 77 | 1015.1 |
| 20260905110018 | 61 | 0 | 0.0 | 0.0 | 0.00 | 0.00 | 0.00 | 77 | 1015.1 |
| 20260905105518 | 61 | 0 | 0.0 | 0.0 | 0.00 | 0.00 | 0.00 | 75 | 1014.9 |
| 20260905105039 | 61 | 0 | 0.0 | 0.0 | 0.00 | 0.00 | 0.00 | 75 | 1014.9 |
| 20260905104518 | 61 | 0 | 0.0 | 0.0 | 0.00 | 0.00 | 0.00 | 75 | 1014.8 |
| 20260905104019 | 62 | 0 | 0.0 | 0.0 | 0.00 | 0.00 | 0.00 | 75 | 1014.8 |
| 20260905103518 | 62 | 0 | 0.0 | 0.0 | 0.00 | 0.00 | 0.00 | 75 | 1014.7 |
| 20260905103018 | 62 | 0 | 0.0 | 0.0 | 0.00 | 0.00 | 0.00 | 75 | 1014.7 |
| 20260905102518 | 62 | 0 | 0.0 | 0.0 | 0.00 | 0.00 | 0.00 | 75 | 1014.6 |
| 20260905102039 | 62 | 0 | 0.0 | 0.0 | 0.00 | 0.00 | 0.00 | 75 | 1014.6 |
| 20260905101518 | 62 | 0 | 0.0 | 0.0 | 0.00 | 0.00 | 0.00 | 75 | 1014.4 |
| 20260905101018 | 63 | 0 | 0.0 | 0.0 | 0.00 | 0.00 | 0.00 | 75 | 1014.5 |
| 20260905100518 | 63 | 0 | 0.0 | 0.0 | 0.00 | 0.00 | 0.00 | 75 | 1014.5 |
| 20260905100018 | 63 | 360 | 0.0 | 0.0 | 0.00 | 0.00 | 0.00 | 75 | 1014.4 |
| 20260905095518 | 63 | 1 | 0.0 | 1.0 | 0.00 | 0.00 | 0.00 | 75 | 1014.4 |
| 20260905095018 | 63 | 1 | 1.0 | 4.0 | 0.00 | 0.00 | 0.00 | 77 | 1014.4 |
| 20260905094518 | 63 | 360 | 0.0 | 3.0 | 0.00 | 0.00 | 0.00 | 77 | 1014.4 |
| 20260905094019 | 64 | 0 | 0.0 | 0.0 | 0.00 | 0.00 | 0.00 | 77 | 1014.4 |
| 20260905093518 | 64 | 21 | 0.0 | 0.0 | 0.00 | 0.00 | 0.00 | 77 | 1014.3 |
| 20260905093018 | 64 | 12 | 0.0 | 3.0 | 0.00 | 0.00 | 0.00 | 77 | 1014.2 |
| 20260905092539 | 64 | 5 | 0.0 | 3.0 | 0.00 | 0.00 | 0.00 | 77 | 1014.2 |
| 20260905092018 | 64 | 3 | 0.0 | 3.0 | 0.00 | 0.00 | 0.00 | 77 | 1014.0 |
| 20260905091518 | 64 | 5 | 1.0 | 3.0 | 0.00 | 0.00 | 0.00 | 77 | 1014.1 |
| 20260905091018 | 64 | 6 | 1.0 | 5.0 | 0.00 | 0.00 | 0.00 | 77 | 1014.2 |
| 20260905090518 | 64 | 0 | 0.0 | 0.0 | 0.00 | 0.00 | 0.00 | 77 | 1014.2 |
| 20260905090018 | 64 | 0 | 0.0 | 0.0 | 0.00 | 0.00 | 0.00 | 77 | 1014.3 |
| 20260905085518 | 64 | 0 | 0.0 | 0.0 | 0.00 | 0.00 | 0.00 | 77 | 1014.5 |
| 20260905085018 | 64 | 0 | 0.0 | 0.0 | 0.00 | 0.00 | 0.00 | 77 | 1014.4 |
| 20260905084518 | 64 | 0 | 0.0 | 0.0 | 0.00 | 0.00 | 0.00 | 77 | 1014.5 |
| 20260905084018 | 64 | 0 | 0.0 | 0.0 | 0.00 | 0.00 | 0.00 | 78 | 1014.6 |
| 20260905083518 | 64 | 360 | 0.0 | 0.0 | 0.00 | 0.00 | 0.00 | 78 | 1014.6 |
| 20260905083018 | 64 | 360 | 1.0 | 4.0 | 0.00 | 0.00 | 0.00 | 78 | 1014.6 |
| 20260905082518 | 64 | 360 | 0.0 | 1.0 | 0.00 | 0.00 | 0.00 | 78 | 1014.6 |
| 20260905082018 | 64 | 0 | 0.0 | 0.0 | 0.00 | 0.00 | 0.00 | 78 | 1014.5 |
| 20260905081518 | 64 | 0 | 0.0 | 0.0 | 0.00 | 0.00 | 0.00 | 78 | 1014.6 |
| 20260905081039 | 64 | 360 | 0.0 | 0.0 | 0.00 | 0.00 | 0.00 | 78 | 1014.6 |
| 20260905080518 | 64 | 360 | 0.0 | 3.0 | 0.00 | 0.00 | 0.00 | 78 | 1014.4 |
| 20260905080018 | 64 | 360 | 0.0 | 1.0 | 0.00 | 0.00 | 0.00 | 78 | 1014.3 |
| 20260905075518 | 64 | 360 | 1.0 | 1.0 | 0.00 | 0.00 | 0.00 | 78 | 1014.3 |
| 20260905075039 | 64 | 360 | 1.0 | 5.0 | 0.00 | 0.00 | 0.00 | 78 | 1013.9 |
| 20260905074518 | 64 | 360 | 1.0 | 4.0 | 0.00 | 0.00 | 0.00 | 78 | 1014.0 |
| 20260905074018 | 64 | 360 | 2.0 | 4.0 | 0.00 | 0.00 | 0.00 | 78 | 1013.9 |
| 20260905073540 | 64 | 360 | 2.0 | 7.0 | 0.00 | 0.00 | 0.00 | 78 | 1013.8 |
| 20260905073018 | 64 | 360 | 1.0 | 4.0 | 0.00 | 0.00 | 0.00 | 78 | 1013.8 |
| 20260905072518 | 64 | 360 | 0.0 | 3.0 | 0.00 | 0.00 | 0.00 | 78 | 1013.8 |
| 20260905072018 | 65 | 360 | 0.0 | 3.0 | 0.00 | 0.00 | 0.00 | 78 | 1013.7 |
| 20260905071518 | 64 | 360 | 0.0 | 3.0 | 0.00 | 0.00 | 0.00 | 78 | 1013.7 |
| 20260905071018 | 64 | 360 | 0.0 | 3.0 | 0.00 | 0.00 | 0.00 | 78 | 1013.7 |
| 20260905070518 | 64 | 0 | 0.0 | 0.0 | 0.00 | 0.00 | 0.00 | 78 | 1013.8 |
| 20260905070018 | 64 | 0 | 0.0 | 0.0 | 0.00 | 0.00 | 0.00 | 78 | 1013.9 |
| 20260905065518 | 64 | 0 | 0.0 | 0.0 | 0.00 | 0.00 | 0.00 | 78 | 1014.0 |
| 20260905065018 | 64 | 0 | 0.0 | 0.0 | 0.00 | 0.00 | 0.00 | 78 | 1014.1 |
| 20260905064518 | 64 | 0 | 0.0 | 0.0 | 0.00 | 0.00 | 0.00 | 78 | 1014.2 |
| 20260905064018 | 64 | 0 | 0.0 | 0.0 | 0.00 | 0.00 | 0.00 | 78 | 1014.1 |
| 20260905063518 | 64 | 0 | 0.0 | 0.0 | 0.00 | 0.00 | 0.00 | 78 | 1014.0 |
| 20260905063018 | 64 | 0 | 0.0 | 0.0 | 0.00 | 0.00 | 0.00 | 78 | 1014.0 |
| 20260905062518 | 64 | 0 | 0.0 | 0.0 | 0.00 | 0.00 | 0.00 | 78 | 1014.0 |
| 20260905062039 | 64 | 0 | 0.0 | 0.0 | 0.00 | 0.00 | 0.00 | 77 | 1014.0 |
| 20260905061518 | 64 | 0 | 0.0 | 0.0 | 0.00 | 0.00 | 0.00 | 77 | 1014.1 |
| 20260905061018 | 64 | 0 | 0.0 | 0.0 | 0.00 | 0.00 | 0.00 | 77 | 1014.1 |
| 20260905060518 | 64 | 0 | 0.0 | 0.0 | 0.00 | 0.00 | 0.00 | 77 | 1014.1 |
| 20260905060018 | 64 | 0 | 0.0 | 0.0 | 0.00 | 0.00 | 0.00 | 77 | 1014.1 |
| 20260905055518 | 64 | 0 | 0.0 | 0.0 | 0.00 | 0.00 | 0.00 | 77 | 1014.2 |
| 20260905055018 | 64 | 0 | 0.0 | 0.0 | 0.00 | 0.00 | 0.00 | 77 | 1014.3 |
| 20260905054518 | 64 | 0 | 0.0 | 0.0 | 0.00 | 0.00 | 0.00 | 77 | 1014.2 |
| 20260905054018 | 64 | 0 | 0.0 | 0.0 | 0.00 | 0.00 | 0.00 | 75 | 1014.2 |
| 20260905053518 | 64 | 0 | 0.0 | 0.0 | 0.00 | 0.00 | 0.00 | 75 | 1014.2 |
| 20260905053039 | 64 | 0 | 0.0 | 0.0 | 0.00 | 0.00 | 0.00 | 75 | 1014.2 |
| 20260905052518 | 65 | 0 | 0.0 | 0.0 | 0.00 | 0.00 | 0.00 | 75 | 1014.2 |
| 20260905052039 | 65 | 0 | 0.0 | 0.0 | 0.00 | 0.00 | 0.00 | 75 | 1014.3 |
| 20260905051518 | 65 | 0 | 0.0 | 0.0 | 0.00 | 0.00 | 0.00 | 75 | 1014.4 |
| 20260905051019 | 65 | 0 | 0.0 | 0.0 | 0.00 | 0.00 | 0.00 | 75 | 1014.4 |
| 20260905050518 | 66 | 0 | 0.0 | 0.0 | 0.00 | 0.00 | 0.00 | 75 | 1014.3 |
| 20260905050018 | 66 | 0 | 0.0 | 0.0 | 0.00 | 0.00 | 0.00 | 75 | 1014.5 |
| 20260905045518 | 66 | 0 | 0.0 | 0.0 | 0.00 | 0.00 | 0.00 | 75 | 1014.6 |
| 20260905045018 | 66 | 0 | 0.0 | 0.0 | 0.00 | 0.00 | 0.00 | 75 | 1014.4 |
| 20260905044519 | 66 | 0 | 0.0 | 0.0 | 0.00 | 0.00 | 0.00 | 75 | 1014.5 |
| 20260905044018 | 66 | 0 | 0.0 | 0.0 | 0.00 | 0.00 | 0.00 | 75 | 1014.5 |
| 20260905043518 | 66 | 0 | 0.0 | 0.0 | 0.00 | 0.00 | 0.00 | 75 | 1014.5 |
| 20260905043018 | 67 | 0 | 0.0 | 0.0 | 0.00 | 0.00 | 0.00 | 75 | 1014.6 |
| 20260905042518 | 67 | 0 | 0.0 | 0.0 | 0.00 | 0.00 | 0.00 | 74 | 1014.6 |
| 20260905042018 | 67 | 0 | 0.0 | 0.0 | 0.00 | 0.00 | 0.00 | 75 | 1014.6 |
| 20260905041518 | 67 | 0 | 0.0 | 0.0 | 0.00 | 0.00 | 0.00 | 75 | 1014.6 |
| 20260905041018 | 67 | 0 | 0.0 | 0.0 | 0.00 | 0.01 | 0.00 | 75 | 1014.6 |
| 20260905040539 | 67 | 0 | 0.0 | 0.0 | 0.00 | 0.01 | 0.00 | 75 | 1014.6 |
| 20260905040019 | 67 | 0 | 0.0 | 0.0 | 0.00 | 0.01 | 0.00 | 75 | 1014.7 |
| 20260905035518 | 68 | 0 | 0.0 | 0.0 | 0.00 | 0.01 | 0.01 | 75 | 1014.6 |
| 20260905035018 | 68 | 0 | 0.0 | 0.0 | 0.00 | 0.01 | 0.01 | 75 | 1014.6 |
| 20260905034518 | 68 | 0 | 0.0 | 0.0 | 0.00 | 0.01 | 0.01 | 75 | 1014.7 |
| 20260905034039 | 68 | 0 | 0.0 | 0.0 | 0.00 | 0.01 | 0.01 | 75 | 1014.8 |
| 20260905033518 | 68 | 0 | 0.0 | 0.0 | 0.00 | 0.01 | 0.01 | 75 | 1014.6 |
| 20260905033018 | 68 | 0 | 0.0 | 0.0 | 0.00 | 0.01 | 0.01 | 75 | 1014.8 |
| 20260905032518 | 68 | 0 | 0.0 | 0.0 | 0.00 | 0.01 | 0.01 | 75 | 1014.9 |
| 20260905032018 | 68 | 0 | 0.0 | 0.0 | 0.00 | 0.01 | 0.01 | 75 | 1014.8 |
| 20260905031518 | 68 | 0 | 0.0 | 0.0 | 0.00 | 0.01 | 0.01 | 75 | 1014.7 |
| 20260905031018 | 68 | 0 | 0.0 | 0.0 | 0.00 | 0.01 | 0.01 | 75 | 1014.8 |
| 20260905030518 | 68 | 0 | 0.0 | 0.0 | 0.00 | 0.01 | 0.01 | 75 | 1014.8 |
| 20260905030039 | 68 | 0 | 0.0 | 0.0 | 0.00 | 0.01 | 0.01 | 75 | 1014.8 |
| 20260905025518 | 68 | 0 | 0.0 | 0.0 | 0.00 | 0.01 | 0.01 | 75 | 1014.9 |
| 20260905025018 | 68 | 0 | 0.0 | 0.0 | 0.00 | 0.01 | 0.01 | 75 | 1015.0 |
| 20260905024518 | 68 | 0 | 0.0 | 0.0 | 0.00 | 0.01 | 0.01 | 75 | 1015.0 |
| 20260905024018 | 68 | 0 | 0.0 | 0.0 | 0.00 | 0.01 | 0.01 | 74 | 1014.9 |
| 20260905023518 | 68 | 0 | 0.0 | 0.0 | 0.00 | 0.01 | 0.01 | 74 | 1015.0 |
| 20260905023018 | 68 | 0 | 0.0 | 0.0 | 0.00 | 0.01 | 0.01 | 74 | 1015.0 |
| 20260905022539 | 68 | 0 | 0.0 | 0.0 | 0.00 | 0.01 | 0.01 | 74 | 1015.0 |
| 20260905022018 | 68 | 0 | 0.0 | 0.0 | 0.00 | 0.01 | 0.01 | 74 | 1014.9 |
| 20260905021539 | 68 | 0 | 0.0 | 0.0 | 0.00 | 0.01 | 0.01 | 74 | 1014.8 |
| 20260905021017 | 68 | 0 | 0.0 | 0.0 | 0.00 | 0.01 | 0.01 | 74 | 1014.9 |
| 20260905020518 | 68 | 360 | 0.0 | 0.0 | 0.00 | 0.01 | 0.01 | 74 | 1014.9 |
| 20260905020018 | 69 | 360 | 0.0 | 1.0 | 0.00 | 0.01 | 0.01 | 74 | 1014.8 |
| 20260905015517 | 69 | 360 | 0.0 | 1.0 | 0.00 | 0.01 | 0.01 | 74 | 1014.9 |
| 20260905015017 | 69 | 0 | 0.0 | 1.0 | 0.00 | 0.01 | 0.01 | 74 | 1014.6 |
| 20260905014518 | 69 | 0 | 0.0 | 0.0 | 0.00 | 0.01 | 0.01 | 73 | 1014.7 |
| 20260905014017 | 69 | 0 | 0.0 | 0.0 | 0.00 | 0.01 | 0.01 | 73 | 1014.6 |
| 20260905013517 | 69 | 0 | 0.0 | 0.0 | 0.00 | 0.01 | 0.01 | 73 | 1014.6 |
| 20260905013018 | 69 | 0 | 0.0 | 0.0 | 0.00 | 0.01 | 0.01 | 73 | 1014.7 |
| 20260905012517 | 69 | 0 | 0.0 | 0.0 | 0.00 | 0.01 | 0.01 | 73 | 1014.6 |
| 20260905012018 | 69 | 0 | 0.0 | 0.0 | 0.00 | 0.01 | 0.01 | 73 | 1014.8 |
| 20260905011518 | 69 | 0 | 0.0 | 0.0 | 0.00 | 0.01 | 0.01 | 73 | 1014.7 |
| 20260905011039 | 69 | 0 | 0.0 | 0.0 | 0.00 | 0.01 | 0.01 | 73 | 1014.6 |
| 20260905010517 | 70 | 0 | 0.0 | 0.0 | 0.00 | 0.01 | 0.01 | 73 | 1014.6 |
| 20260905010018 | 70 | 360 | 0.0 | 0.0 | 0.00 | 0.01 | 0.01 | 73 | 1014.5 |
| 20260905005518 | 70 | 360 | 0.0 | 1.0 | 0.00 | 0.01 | 0.01 | 73 | 1014.4 |
| 20260905005018 | 70 | 360 | 0.0 | 0.0 | 0.00 | 0.01 | 0.01 | 73 | 1014.3 |
| 20260905004517 | 70 | 360 | 0.0 | 1.0 | 0.00 | 0.01 | 0.01 | 73 | 1014.2 |
| 20260905004039 | 70 | 360 | 0.0 | 1.0 | 0.00 | 0.01 | 0.01 | 72 | 1014.2 |
| 20260905003518 | 70 | 360 | 0.0 | 1.0 | 0.00 | 0.01 | 0.01 | 72 | 1014.3 |
| 20260905003038 | 70 | 360 | 0.0 | 0.0 | 0.00 | 0.01 | 0.01 | 72 | 1014.3 |
| 20260905002517 | 70 | 360 | 0.0 | 1.0 | 0.00 | 0.01 | 0.01 | 72 | 1014.2 |
| 20260905002039 | 71 | 360 | 0.0 | 3.0 | 0.00 | 0.01 | 0.01 | 72 | 1014.3 |
| 20260905001538 | 71 | 360 | 0.0 | 1.0 | 0.00 | 0.01 | 0.01 | 72 | 1014.3 |
| 20260905001018 | 71 | 360 | 0.0 | 3.0 | 0.00 | 0.01 | 0.01 | 72 | 1014.4 |
| 20260905000517 | 71 | 0 | 0.0 | 0.0 | 0.00 | 0.01 | 0.01 | 72 | 1014.3 |
| 20260905000038 | 71 | 0 | 0.0 | 0.0 | 0.00 | 0.01 | 0.01 | 71 | 1014.3 |
| 20260904235517 | 71 | 0 | 0.0 | 0.0 | 0.00 | 0.01 | 0.01 | 71 | 1014.4 |
| 20260904235038 | 71 | 0 | 0.0 | 0.0 | 0.00 | 0.01 | 0.01 | 70 | 1014.4 |
| 20260904234517 | 71 | 0 | 0.0 | 0.0 | 0.00 | 0.01 | 0.01 | 70 | 1014.2 |
| 20260904234017 | 71 | 0 | 0.0 | 0.0 | 0.00 | 0.01 | 0.01 | 70 | 1014.2 |
| 20260904233518 | 72 | 0 | 0.0 | 0.0 | 0.00 | 0.01 | 0.01 | 70 | 1014.3 |
| 20260904233018 | 72 | 0 | 0.0 | 0.0 | 0.00 | 0.01 | 0.01 | 70 | 1014.3 |
| 20260904232517 | 72 | 0 | 0.0 | 0.0 | 0.00 | 0.01 | 0.01 | 70 | 1014.3 |
| 20260904232038 | 72 | 0 | 0.0 | 0.0 | 0.00 | 0.01 | 0.01 | 70 | 1014.3 |
| 20260904231517 | 72 | 360 | 0.0 | 0.0 | 0.00 | 0.01 | 0.01 | 70 | 1014.3 |
| 20260904231039 | 72 | 360 | 0.0 | 1.0 | 0.00 | 0.01 | 0.01 | 69 | 1014.3 |
| 20260904230539 | 72 | 360 | 0.0 | 0.0 | 0.00 | 0.01 | 0.01 | 69 | 1014.3 |
| 20260904230017 | 72 | 0 | 0.0 | 1.0 | 0.00 | 0.01 | 0.01 | 69 | 1014.3 |
| 20260904225518 | 72 | 360 | 0.0 | 0.0 | 0.00 | 0.01 | 0.01 | 69 | 1014.2 |
| 20260904225017 | 72 | 0 | 0.0 | 1.0 | 0.00 | 0.01 | 0.01 | 69 | 1014.2 |
| 20260904224517 | 72 | 0 | 0.0 | 0.0 | 0.00 | 0.01 | 0.01 | 69 | 1014.1 |
| 20260904224039 | 72 | 360 | 0.0 | 0.0 | 0.00 | 0.01 | 0.01 | 69 | 1014.2 |
| 20260904223517 | 72 | 360 | 0.0 | 4.0 | 0.00 | 0.01 | 0.01 | 69 | 1014.2 |
| 20260904223018 | 72 | 360 | 0.0 | 3.0 | 0.00 | 0.01 | 0.01 | 69 | 1014.1 |
| 20260904222518 | 72 | 360 | 1.0 | 4.0 | 0.00 | 0.01 | 0.01 | 69 | 1014.0 |
| 20260904222017 | 72 | 360 | 1.0 | 5.0 | 0.00 | 0.01 | 0.01 | 69 | 1013.9 |
| 20260904221517 | 72 | 360 | 1.0 | 3.0 | 0.00 | 0.01 | 0.01 | 69 | 1013.6 |
| 20260904221017 | 72 | 360 | 2.0 | 7.0 | 0.00 | 0.01 | 0.01 | 70 | 1013.5 |
| 20260904220517 | 73 | 360 | 2.0 | 7.0 | 0.00 | 0.01 | 0.01 | 70 | 1013.6 |
| 20260904220017 | 73 | 360 | 2.0 | 7.0 | 0.00 | 0.02 | 0.01 | 70 | 1013.5 |
| 20260904215517 | 73 | 360 | 3.0 | 5.0 | 0.00 | 0.02 | 0.01 | 70 | 1013.4 |
| 20260904215038 | 73 | 360 | 3.0 | 11.0 | 0.00 | 0.02 | 0.01 | 70 | 1013.3 |
| 20260904214517 | 73 | 360 | 2.0 | 5.0 | 0.00 | 0.03 | 0.01 | 70 | 1013.1 |
| 20260904214039 | 73 | 360 | 4.0 | 8.0 | 0.00 | 0.04 | 0.01 | 70 | 1013.2 |
| 20260904213517 | 73 | 360 | 2.0 | 15.0 | 0.00 | 0.04 | 0.01 | 70 | 1012.9 |
| 20260904213017 | 73 | 360 | 1.0 | 7.0 | 0.00 | 0.05 | 0.01 | 71 | 1013.0 |
| 20260904212517 | 73 | 360 | 1.0 | 8.0 | 0.00 | 0.06 | 0.01 | 71 | 1013.2 |
| 20260904212017 | 73 | 360 | 0.0 | 5.0 | 0.00 | 0.06 | 0.01 | 70 | 1013.2 |
| 20260904211517 | 74 | 360 | 0.0 | 3.0 | 0.00 | 0.09 | 0.01 | 70 | 1013.2 |
| 20260904211017 | 74 | 360 | 1.0 | 7.0 | 0.00 | 0.10 | 0.01 | 70 | 1013.1 |
| 20260904210538 | 74 | 360 | 2.0 | 7.0 | 0.00 | 0.11 | 0.01 | 70 | 1013.1 |
| 20260904210017 | 74 | 360 | 2.0 | 13.0 | 0.00 | 0.12 | 0.01 | 70 | 1013.1 |
| 20260904205518 | 75 | 360 | 1.0 | 7.0 | 0.00 | 0.13 | 0.01 | 70 | 1013.0 |
| 20260904205038 | 75 | 360 | 1.0 | 7.0 | 0.00 | 0.15 | 0.01 | 70 | 1013.1 |
| 20260904204538 | 75 | 360 | 0.0 | 3.0 | 0.00 | 0.25 | 0.01 | 70 | 1013.0 |
| 20260904204017 | 75 | 360 | 0.0 | 3.0 | 0.00 | 0.44 | 0.01 | 70 | 1013.2 |
| 20260904203517 | 75 | 360 | 0.0 | 3.0 | 0.00 | 0.95 | 0.01 | 70 | 1013.1 |
| 20260904203017 | 75 | 360 | 0.0 | 4.0 | 0.00 | 0.99 | 0.01 | 70 | 1013.0 |
| 20260904202518 | 75 | 360 | 0.0 | 4.0 | 0.00 | 1.00 | 0.01 | 70 | 1013.0 |
| 20260904202017 | 75 | 360 | 0.0 | 1.0 | 0.00 | 1.10 | 0.01 | 71 | 1013.0 |